[[{"header":{"parameterUnit":"m.s-1","parameterCategory":1,"la1":30.2991,"la2":30.254,"lo1":-89.0895,"lo2":-89.0444,"dy":0.0017,"dx":0.0017,"nx":28,"ny":28,"refTime":"2025-03-28T09:00:00:Z","depth":0,"parameterNumber":2,"parameterNumberName":"U-component_of_WINDS"},"data":[0,0,0,0,0,0,0,0,0,0,0,0,0,0,0,0,0,0,0,0,0,0,0,0,0,0,0,0,0,0,0,0,0,0,0,0,0,0,0,0,0,0,0,0,0,0,0,0,0,0,0,0,0,0,0,0,0,0,-6.535,-6.5351,0,-6.549,-6.5492,-6.5493,-6.5504,-6.5503,-6.5501,-6.55,-6.564,-6.5645,-6.565,0,0,0,0,0,0,0,0,0,0,0,0,0,-6.5091,-6.5096,-6.535,-6.5352,-6.5353,-6.549,-6.5492,-6.5494,-6.5504,-6.5503,-6.5501,-6.5499,-6.5639,-6.5645,-6.5651,0,0,0,0,0,0,0,0,0,0,0,0,0,-6.5215,-6.5098,-6.535,-6.5375,-6.5379,-6.5489,-6.5492,-6.5494,-6.5505,-6.5503,-6.55,-6.5498,-6.5637,-6.5644,-6.5652,-6.5745,0,0,-6.5675,-6.5679,0,0,0,0,0,0,0,0,-6.5208,-6.5224,-6.537,-6.5374,-6.5378,-6.5477,-6.5452,-6.5578,-6.5505,-6.5457,-6.55,-6.5497,-6.5588,-6.5599,-6.5631,-6.5752,-6.5758,-6.5676,-6.5681,-6.5684,-6.5686,0,0,0,0,0,0,0,-6.5199,-6.5218,-6.5405,-6.5372,-6.5377,-6.538,-6.5395,-6.5476,-6.5533,-6.5461,-6.5462,-6.5479,-6.559,-6.5623,-6.5634,-6.576,-6.5676,-6.5683,-6.5688,-6.5691,-6.5966,-6.5968,0,0,0,0,0,0,-6.5186,-6.5211,-6.5401,-6.5409,-6.5286,-6.5386,-6.5403,-6.5448,-6.5533,-6.5543,-6.5481,-6.5479,-6.5611,-6.5625,-6.5639,-6.5753,-6.5684,-6.5691,-6.5696,-6.5963,-6.5966,-6.5969,0,0,0,0,0,0,-6.518,-6.5203,-6.5395,-6.5311,-6.5335,-6.5393,-6.5443,-6.5452,-6.5485,-6.5547,-6.5557,-6.5504,-6.561,-6.5628,-6.5719,-6.5758,-6.5695,-6.5702,-6.596,-6.5964,-6.5968,-6.5983,0,0,0,0,0,0,-6.5173,-6.5201,-6.5236,-6.5311,-6.534,-6.5473,-6.5446,-6.5456,-6.5499,-6.5498,-6.5572,-6.5582,-6.5609,-6.5707,-6.5727,-6.5768,-6.5708,-6.5956,-6.5962,-6.5966,-6.5979,-6.5987,-6.5993,0,0,0,0,0,-6.5163,-6.5234,-6.5238,-6.5261,-6.5386,-6.5475,-6.5491,-6.5522,-6.5502,-6.5538,-6.5579,-6.558,-6.5752,-6.5717,-6.5738,-6.5782,-6.5954,-6.596,-6.5966,-6.5975,-6.5985,-6.5993,0,0,0,0,0,0,-6.516,-6.5244,-6.5249,-6.5347,-6.5404,-6.5477,-6.5523,-6.5531,-6.5594,-6.559,-6.5625,-6.5642,-6.5731,-6.5767,-6.5726,-6.5878,-6.5851,-6.5861,-6.5851,-6.586,-6.5867,-6.5855,-6.5714,0,0,0,0,0,-6.5171,-6.5237,-6.5307,-6.5386,-6.5415,-6.5464,-6.5504,-6.5523,-6.5583,-6.5607,-6.5654,-6.5712,-6.5779,-6.5822,-6.5888,-6.5986,-6.6002,-6.6027,-6.6034,-6.604,-6.6047,-6.6102,-6.6114,-6.5989,-6.5989,-6.5989,0,0,-6.5194,-6.5248,-6.5287,-6.5387,-6.5433,-6.55,-6.5484,-6.5556,-6.5605,-6.5618,-6.5706,-6.5744,-6.581,-6.5905,-6.595,-6.5937,-6.6087,-6.6048,-6.6052,-6.6056,-6.611,-6.6121,-6.6132,-6.5993,-6.5992,-6.5991,0,0,-6.5268,-6.5317,-6.5388,-6.5436,-6.5507,-6.554,-6.5558,-6.5631,-6.5656,-6.5746,-6.5757,-6.5817,-6.5932,-6.598,-6.6019,-6.6116,-6.6119,-6.6137,-6.6173,-6.6226,-6.6235,-6.6244,-6.6277,-6.6289,-6.6145,-6.6145,-6.6145,0,-6.5286,-6.5388,-6.5423,-6.5495,-6.5538,-6.5556,-6.5627,-6.5672,-6.5761,-6.579,-6.5777,-6.5923,-6.5969,-6.6075,-6.6099,-6.6131,-6.6151,-6.6126,-6.6231,-6.6241,-6.6249,-6.6281,-6.6294,-6.6146,-6.6146,-6.6146,-6.6146,0,-6.5407,-6.5478,-6.5527,-6.5613,-6.5663,-6.5734,-6.578,-6.5826,-6.5843,-6.5877,-6.5969,-6.6027,-6.6104,-6.6132,-6.6147,-6.6241,-6.6231,-6.6224,-6.6197,-6.6262,-6.6293,-6.6305,-6.6148,-6.6148,-6.6147,-6.6147,0,0,-6.5478,-6.5586,-6.5603,-6.5643,-6.5725,-6.578,-6.5854,-6.5931,-6.5969,-6.6032,-6.6093,-6.6192,-6.6187,-6.6232,-6.6254,-6.6301,-6.6373,-6.6288,-6.629,-6.63,-6.6478,-6.648,-6.6494,-6.6377,-6.638,-6.6382,-6.6472,0,-6.556,-6.569,-6.5726,-6.5836,-6.5902,-6.5921,-6.5985,-6.6043,-6.6078,-6.6139,-6.6179,-6.6248,-6.6237,-6.6264,-6.6311,-6.6354,-6.6408,-6.6348,-6.6433,-6.6436,-6.6412,-6.651,-6.6512,-6.6594,-6.6484,-6.6486,-6.6488,0,-6.5671,-6.5737,-6.5854,-6.593,-6.5959,-6.6015,-6.6089,-6.6148,-6.6214,-6.6237,-6.6289,-6.6307,-6.6385,-6.6357,-6.6464,-6.6422,-6.646,-6.6486,-6.649,-6.6496,-6.6463,-6.6516,-6.6621,-6.6632,-6.6507,-6.6506,-6.6504,0,-6.5709,-6.5828,-6.5913,-6.5947,-6.6037,-6.6077,-6.6116,-6.618,-6.6225,-6.6291,-6.632,-6.6394,-6.6433,-6.649,-6.6528,-6.6504,-6.6631,-6.6607,-6.6651,-6.665,-6.6673,-6.667,-6.6782,-6.6703,-6.6703,-6.6703,-6.6702,0,-6.5795,-6.5865,-6.5931,-6.5983,-6.6064,-6.6105,-6.6183,-6.6223,-6.6281,-6.6341,-6.6364,-6.642,-6.6468,-6.6531,-6.6562,-6.6645,-6.6663,-6.6683,-6.669,-6.6679,-6.6676,-6.6701,-6.6696,-6.6706,-6.6705,-6.6704,-6.6704,0,-6.5848,-6.5896,-6.599,-6.607,-6.6091,-6.6146,-6.6214,-6.6266,-6.6304,-6.638,-6.6401,-6.646,-6.6536,-6.6581,-6.6676,-6.6697,-6.6788,-6.6794,-6.6765,-6.6768,-6.6809,-6.6803,-6.6938,-6.6957,-6.6867,-6.6868,-6.6869,0,-6.5898,-6.5953,-6.6039,-6.6082,-6.6122,-6.619,-6.6237,-6.6281,-6.6328,-6.6409,-6.6451,-6.6529,-6.6592,-6.6712,-6.6764,-6.6837,-6.6843,-6.6886,-6.6854,-6.6842,-6.6841,-6.6836,-6.6841,-6.6889,-6.689,-6.6891,-6.6891,0,-6.5981,-6.6002,-6.6069,-6.6144,-6.6199,-6.6261,-6.6322,-6.6355,-6.641,-6.6462,-6.654,-6.659,-6.6689,-6.6765,-6.6843,-6.6884,-6.6896,-6.6902,-6.6915,-6.6903,-6.6883,-6.6893,-6.6777,-6.6897,-6.6897,-6.6896,-6.6896,-6.6896,-6.6032,-6.6082,-6.6151,-6.6225,-6.6276,-6.6333,-6.6386,-6.6432,-6.6498,-6.6582,-6.6605,-6.6686,-6.6753,-6.686,-6.6903,-6.6968,-6.6961,-6.6981,-6.6985,-6.6989,-6.6989,-6.6877,-6.6982,-6.6982,-6.6982,-6.6982,-6.6982,0,-6.6114,-6.616,-6.6228,-6.6313,-6.6372,-6.6382,-6.6451,-6.6498,-6.657,-6.6632,-6.6695,-6.6786,-6.6861,-6.692,-6.6997,-6.7037,-6.7045,-6.7056,-6.7051,-6.706,-6.6992,-6.6971,-6.7048,-6.7048,-6.7048,-6.7048,-6.7048,-6.7048,-6.6163,-6.6248,-6.6278,-6.6389,-6.6435,-6.6516,-6.6554,-6.6607,-6.6657,-6.6757,-6.682,-6.6859,-6.692,-6.7002,-6.7072,-6.7088,-6.7114,-6.7123,-6.7139,-6.7073,-6.7065,-6.7058,-6.7039,-6.7129,-6.7129,-6.7202,-6.7203,-6.7203]},{"header":{"parameterUnit":"m.s-1","parameterCategory":1,"la1":30.2991,"la2":30.254,"lo1":-89.0895,"lo2":-89.0444,"dy":0.0017,"dx":0.0017,"nx":28,"ny":28,"refTime":"2025-03-28T09:00:00:Z","depth":0,"parameterNumber":3,"parameterNumberName":"V-component_of_WINDS"},"data":[0,0,0,0,0,0,0,0,0,0,0,0,0,0,0,0,0,0,0,0,0,0,0,0,0,0,0,0,0,0,0,0,0,0,0,0,0,0,0,0,0,0,0,0,0,0,0,0,0,0,0,0,0,0,0,0,0,0,4.2096,4.2097,0,4.2235,4.2237,4.2239,4.232,4.232,4.232,4.2321,4.2458,4.2462,4.2465,0,0,0,0,0,0,0,0,0,0,0,0,0,4.1896,4.19,4.2096,4.2097,4.2099,4.2235,4.2237,4.2239,4.232,4.232,4.232,4.2321,4.2457,4.2461,4.2465,0,0,0,0,0,0,0,0,0,0,0,0,0,4.2004,4.1901,4.2095,4.2156,4.2163,4.2235,4.2237,4.2239,4.2319,4.232,4.232,4.2321,4.2456,4.2461,4.2466,4.2487,0,0,4.2481,4.2484,0,0,0,0,0,0,0,0,4.1998,4.2011,4.2145,4.2152,4.216,4.2261,4.2217,4.2322,4.2319,4.226,4.2321,4.2321,4.2392,4.2402,4.2427,4.2493,4.2499,4.2482,4.2485,4.2487,4.2488,0,0,0,0,0,0,0,4.199,4.2006,4.2151,4.2147,4.2156,4.2175,4.2191,4.2238,4.2321,4.2265,4.2271,4.2287,4.2396,4.2422,4.2431,4.2501,4.2482,4.2486,4.2489,4.2491,4.2595,4.2595,0,0,0,0,0,0,4.1974,4.1999,4.2146,4.2155,4.2078,4.2178,4.2196,4.2228,4.2321,4.2336,4.2286,4.229,4.2413,4.2425,4.2436,4.247,4.2487,4.2492,4.2495,4.2595,4.2595,4.2595,0,0,0,0,0,0,4.1969,4.1986,4.2141,4.2079,4.21,4.2181,4.2216,4.223,4.2257,4.2337,4.2352,4.2298,4.2414,4.2429,4.2475,4.2475,4.2494,4.2499,4.2596,4.2595,4.2595,4.2534,0,0,0,0,0,0,4.1963,4.1984,4.1993,4.2078,4.2103,4.2178,4.2216,4.2233,4.2266,4.2272,4.2352,4.2366,4.2416,4.2467,4.248,4.2483,4.2502,4.2596,4.2596,4.2595,4.2537,4.2532,4.2528,0,0,0,0,0,4.1955,4.1968,4.1993,4.201,4.2116,4.2177,4.2191,4.225,4.2265,4.2275,4.2328,4.2363,4.2473,4.2471,4.2486,4.249,4.2596,4.2596,4.2595,4.2538,4.2533,4.2528,0,0,0,0,0,0,4.1878,4.1981,4.2009,4.205,4.2105,4.2191,4.2205,4.2242,4.2292,4.2295,4.2364,4.2382,4.2421,4.246,4.2456,4.2517,4.2539,4.2541,4.249,4.2486,4.2481,4.2471,4.2507,0,0,0,0,0,4.1867,4.1909,4.1995,4.2023,4.205,4.2123,4.2151,4.2192,4.2251,4.2274,4.2329,4.2384,4.2431,4.246,4.2508,4.2543,4.2562,4.2553,4.2549,4.2545,4.2546,4.257,4.2567,4.2593,4.2593,4.2593,0,0,4.1842,4.1903,4.1925,4.201,4.2057,4.2099,4.2141,4.2183,4.2215,4.228,4.2328,4.237,4.2435,4.2477,4.2497,4.251,4.2543,4.2544,4.254,4.2544,4.2569,4.2566,4.2564,4.2593,4.2593,4.2593,0,0,4.1819,4.1869,4.1899,4.1947,4.2019,4.2067,4.2075,4.2156,4.2188,4.2237,4.2288,4.2326,4.2405,4.245,4.2484,4.2481,4.2516,4.2494,4.2471,4.2494,4.2492,4.249,4.2491,4.249,4.2495,4.2495,4.2495,0,4.1779,4.1845,4.191,4.195,4.1986,4.205,4.2081,4.2123,4.2206,4.2229,4.2243,4.2346,4.2394,4.2448,4.2448,4.2472,4.2483,4.2486,4.2487,4.2486,4.2486,4.2487,4.2487,4.2492,4.2493,4.2493,4.2493,0,4.1793,4.1839,4.1854,4.1936,4.1974,4.2009,4.2079,4.2109,4.2147,4.2195,4.2245,4.2306,4.2368,4.2384,4.242,4.2443,4.245,4.2474,4.2497,4.2479,4.2482,4.2483,4.2488,4.2489,4.249,4.2491,0,0,4.1724,4.1844,4.1848,4.1888,4.1973,4.2009,4.2047,4.211,4.2136,4.2191,4.2226,4.2293,4.2317,4.2355,4.2397,4.2417,4.2413,4.2439,4.2442,4.2434,4.2445,4.2427,4.2427,4.2437,4.2438,4.2438,4.244,0,4.1715,4.179,4.185,4.1902,4.1945,4.2007,4.2041,4.2097,4.2142,4.2185,4.2235,4.2283,4.231,4.2334,4.2356,4.2409,4.2417,4.2409,4.247,4.2472,4.2453,4.2428,4.2408,4.2407,4.2441,4.2442,4.2442,0,4.1714,4.177,4.1826,4.191,4.1931,4.196,4.2025,4.2065,4.213,4.2162,4.2206,4.225,4.2294,4.2313,4.2374,4.2368,4.2397,4.2427,4.2428,4.2437,4.2456,4.2437,4.2408,4.2409,4.2444,4.2444,4.2443,0,4.166,4.1749,4.1796,4.1827,4.1925,4.1945,4.1986,4.2052,4.2087,4.2143,4.2166,4.2225,4.2257,4.2302,4.2361,4.2369,4.2417,4.244,4.2445,4.2444,4.2453,4.2452,4.243,4.2469,4.2469,4.2469,4.2469,0,4.1644,4.1676,4.1774,4.1802,4.1841,4.191,4.1946,4.1993,4.2051,4.209,4.2146,4.218,4.2257,4.23,4.2347,4.2392,4.2405,4.2433,4.2445,4.2428,4.2425,4.2448,4.245,4.2469,4.2469,4.2469,4.2469,0,4.1591,4.1657,4.1712,4.1802,4.1825,4.185,4.1926,4.1956,4.2006,4.2054,4.2069,4.2147,4.2201,4.2266,4.234,4.2372,4.2413,4.243,4.2392,4.2399,4.2401,4.2401,4.2395,4.2398,4.2433,4.2432,4.2432,0,4.1576,4.1604,4.1697,4.1728,4.1769,4.1817,4.1855,4.1924,4.196,4.2038,4.2058,4.2118,4.2169,4.2254,4.2316,4.2374,4.2394,4.2388,4.2403,4.2387,4.2396,4.2394,4.2398,4.2384,4.2383,4.2383,4.2382,0,4.1545,4.1577,4.163,4.1694,4.1737,4.1791,4.1846,4.1868,4.1948,4.1986,4.2044,4.2084,4.2163,4.2222,4.2288,4.233,4.237,4.2377,4.2382,4.2366,4.2343,4.2357,4.2382,4.2377,4.2377,4.2378,4.2378,4.2378,4.1512,4.154,4.1612,4.1668,4.1718,4.177,4.1803,4.1859,4.1909,4.198,4.2017,4.2075,4.2141,4.2235,4.2275,4.2321,4.2335,4.234,4.2342,4.2343,4.2339,4.2335,4.2333,4.2334,4.2334,4.2334,4.2334,0,4.1485,4.1535,4.1587,4.1664,4.1709,4.1745,4.1809,4.1844,4.1895,4.1954,4.2005,4.2072,4.213,4.2198,4.226,4.2284,4.2304,4.2298,4.2297,4.2307,4.2323,4.2314,4.2281,4.2281,4.2281,4.2281,4.2281,4.2281,4.1477,4.1527,4.1568,4.1644,4.1693,4.1752,4.1786,4.1834,4.1882,4.1955,4.2005,4.205,4.2113,4.218,4.2235,4.2254,4.2275,4.2264,4.2287,4.2301,4.2305,4.231,4.2302,4.2267,4.2267,4.2268,4.2268,4.2268]}]]